Darstellungsparameter: Aktuell verwendete Einstellungen:
Skalierung der Graphiken ... ?
xyx+y,   Skalierungsfaktor:      Skalierung: Modus: x, Faktor: 1
Darstellungszeitraum ... ?
Vom - - bis: - -   Zeitraum: 27.04.2018 - 29.04.2018
Min/Max/Avg-Anzeige ... ?
Zeige MMA aktuell
Zeige MMA Monat
Zeige MMA alles
Zeige --A aktuell
Zeige --A Monat
Zeige --A alles
Keine MMA-Anzeige
MMA:
Average (ber die Originaldaten)
MMA-Basis: 27.04.2018 - 29.04.2018
Quicknavigation für Darstellung... ?
Tage:      1T, 2T, 3T, 5T -1T -2T -3T -5T +1T +2T +3T +5T
Wochen: 1W, 2W, 3W -1W -2W -3W +1W +2W +3W
Monate: 1M, 3M, 6M -1M -3M -6M +1M +3M +6M
Jahre:    1J, 3J, 5J, 10J -1J -3J -5J -10J +1J +3J +5J +10J
Nutze für die Darstellung ... ?
Originaldaten oder Mittelwerte auf ...
Stundenbasis Tagesbasis Wochenbasis
Monatsbasis Jahresbasis      Datenbasis: Original-Daten
Darstellen als:
Statistik (Auto) Statistik J:M      Darstellung:
Zur Graphik,    zurück zur Übersicht aller Sensoren.
 
Tabellarische Datenbersicht: ?
 
Sensor: Nr:Datum:Temp:Abs-Feuchte:Windchill:Wind:
Aussen-T/F 1 27-04-2018 00:00:00 6.9 C 6.24 g/m*3 6.9 C 0 km/h
2 27-04-2018 00:05:00 6.8 C 6.19 g/m*3 6.8 C 0 km/h
3 27-04-2018 00:10:00 6.8 C 6.19 g/m*3 6.8 C 0 km/h
4 27-04-2018 00:15:00 6.9 C 6.24 g/m*3 6.9 C 0 km/h
5 27-04-2018 00:20:00 6.9 C 6.24 g/m*3 6.9 C 1.6 km/h
6 27-04-2018 00:25:00 7 C 6.28 g/m*3 7 C 0 km/h
7 27-04-2018 00:30:00 7 C 6.2 g/m*3 7 C 1.6 km/h
8 27-04-2018 00:35:00 6.9 C 6.24 g/m*3 6.9 C 0 km/h
9 27-04-2018 00:40:00 6.9 C 6.24 g/m*3 6.9 C 0 km/h
10 27-04-2018 00:45:00 6.9 C 6.24 g/m*3 6.9 C 0 km/h
11 27-04-2018 00:50:00 6.8 C 6.19 g/m*3 6.8 C 0 km/h
12 27-04-2018 00:55:00 6.8 C 6.19 g/m*3 6.8 C 0 km/h
13 27-04-2018 01:00:00 6.8 C 6.27 g/m*3 6.8 C 0 km/h
14 27-04-2018 01:05:00 6.7 C 6.23 g/m*3 6.7 C 0 km/h
15 27-04-2018 01:10:00 6.6 C 6.19 g/m*3 6.6 C 0 km/h
16 27-04-2018 01:15:00 6.6 C 6.27 g/m*3 6.6 C 0 km/h
17 27-04-2018 01:20:00 6.5 C 6.22 g/m*3 6.5 C 0 km/h
18 27-04-2018 01:25:00 6.4 C 6.18 g/m*3 6.4 C 0 km/h
19 27-04-2018 01:30:00 6.4 C 6.18 g/m*3 6.4 C 0 km/h
20 27-04-2018 01:35:00 6.3 C 6.22 g/m*3 6.3 C 0 km/h
21 27-04-2018 01:40:00 6.4 C 6.26 g/m*3 6.4 C 3.2 km/h
22 27-04-2018 01:45:00 6.4 C 6.26 g/m*3 6.4 C 0 km/h
23 27-04-2018 01:50:00 6.3 C 6.22 g/m*3 6.3 C 0 km/h
24 27-04-2018 01:55:00 6.3 C 6.22 g/m*3 6.3 C 0 km/h
25 27-04-2018 02:00:00 6.2 C 6.18 g/m*3 6.2 C 0 km/h
Sensor: Nr:Datum:Temp:Abs-Feuchte:Windchill:Wind:
Aussen-T/F 26 27-04-2018 02:05:00 6.1 C 6.14 g/m*3 6.1 C 0 km/h
27 27-04-2018 02:10:00 5.9 C 6.06 g/m*3 5.9 C 0 km/h
28 27-04-2018 02:15:00 5.8 C 6.09 g/m*3 5.8 C 0 km/h
29 27-04-2018 02:20:00 5.7 C 6.05 g/m*3 5.7 C 0 km/h
30 27-04-2018 02:25:00 5.6 C 6.01 g/m*3 5.6 C 0 km/h
31 27-04-2018 02:30:00 5.6 C 6.08 g/m*3 5.6 C 0 km/h
32 27-04-2018 02:35:00 5.5 C 6.11 g/m*3 5.5 C 0 km/h
33 27-04-2018 02:40:00 5.4 C 6.07 g/m*3 5.4 C 0 km/h
34 27-04-2018 02:45:00 5.4 C 6.07 g/m*3 5.4 C 0 km/h
35 27-04-2018 02:50:00 5.3 C 6.03 g/m*3 5.3 C 0 km/h
36 27-04-2018 02:55:00 5.2 C 6.06 g/m*3 5.2 C 0 km/h
37 27-04-2018 03:00:00 5.2 C 6.06 g/m*3 5.2 C 0 km/h
38 27-04-2018 03:05:00 5.1 C 6.02 g/m*3 5.1 C 0 km/h
39 27-04-2018 03:10:00 5.1 C 6.02 g/m*3 5.1 C 0 km/h
40 27-04-2018 03:15:00 5 C 5.98 g/m*3 5 C 0 km/h
41 27-04-2018 03:20:00 4.9 C 5.94 g/m*3 4.9 C 0 km/h
42 27-04-2018 03:25:00 4.9 C 6.01 g/m*3 4.9 C 0 km/h
43 27-04-2018 03:30:00 4.9 C 6.01 g/m*3 4.9 C 0 km/h
44 27-04-2018 03:35:00 4.8 C 5.97 g/m*3 4.8 C 0 km/h
45 27-04-2018 03:40:00 4.8 C 5.97 g/m*3 4.8 C 0 km/h
46 27-04-2018 03:45:00 4.8 C 5.97 g/m*3 4.8 C 0 km/h
47 27-04-2018 03:50:00 4.7 C 5.93 g/m*3 4.7 C 0 km/h
48 27-04-2018 03:55:00 4.7 C 6 g/m*3 4.7 C 0 km/h
49 27-04-2018 04:00:00 4.7 C 6 g/m*3 4.7 C 0 km/h
50 27-04-2018 04:05:00 4.7 C 6 g/m*3 4.7 C 0 km/h
Sensor: Nr:Datum:Temp:Abs-Feuchte:Windchill:Wind:
Aussen-T/F 51 27-04-2018 04:10:00 4.8 C 6.1 g/m*3 4.8 C 0 km/h
52 27-04-2018 04:15:00 4.9 C 6.14 g/m*3 4.9 C 0 km/h
53 27-04-2018 04:20:00 5.1 C 6.22 g/m*3 5.1 C 0 km/h
54 27-04-2018 04:25:00 5.2 C 6.27 g/m*3 5.2 C 0 km/h
55 27-04-2018 04:30:00 5.2 C 6.27 g/m*3 5.2 C 0 km/h
56 27-04-2018 04:35:00 5.2 C 6.27 g/m*3 5.2 C 0 km/h
57 27-04-2018 04:40:00 5.2 C 6.27 g/m*3 5.2 C 0 km/h
58 27-04-2018 04:45:00 5.2 C 6.27 g/m*3 5.2 C 0 km/h
59 27-04-2018 04:50:00 5.2 C 6.27 g/m*3 5.2 C 0 km/h
60 27-04-2018 04:55:00 5.2 C 6.27 g/m*3 5.2 C 0 km/h
61 27-04-2018 05:00:00 5.2 C 6.27 g/m*3 5.2 C 0 km/h
62 27-04-2018 05:05:00 5.2 C 6.27 g/m*3 5.2 C 0 km/h
63 27-04-2018 05:10:00 5.2 C 6.27 g/m*3 5.2 C 0 km/h
64 27-04-2018 05:15:00 5.2 C 6.27 g/m*3 5.2 C 0 km/h
65 27-04-2018 05:20:00 5.2 C 6.27 g/m*3 5.2 C 0 km/h
66 27-04-2018 05:25:00 5.2 C 6.27 g/m*3 5.2 C 0 km/h
67 27-04-2018 05:30:00 5.2 C 6.27 g/m*3 5.2 C 0 km/h
68 27-04-2018 05:35:00 5.2 C 6.27 g/m*3 5.2 C 0 km/h
69 27-04-2018 05:40:00 5.2 C 6.27 g/m*3 5.2 C 0 km/h
70 27-04-2018 05:45:00 5.1 C 6.16 g/m*3 5.1 C 1.6 km/h
71 27-04-2018 05:50:00 5.1 C 6.22 g/m*3 5.1 C 0 km/h
72 27-04-2018 05:55:00 5.1 C 6.16 g/m*3 5.1 C 0 km/h
73 27-04-2018 06:00:00 4.9 C 6.08 g/m*3 4.9 C 0 km/h
74 27-04-2018 06:05:00 4.9 C 6.08 g/m*3 4.9 C 0 km/h
75 27-04-2018 06:10:00 4.8 C 6.04 g/m*3 4.8 C 0 km/h
Sensor: Nr:Datum:Temp:Abs-Feuchte:Windchill:Wind:
Aussen-T/F 76 27-04-2018 06:15:00 4.7 C 6 g/m*3 4.7 C 0 km/h
77 27-04-2018 06:20:00 4.7 C 6 g/m*3 4.7 C 0 km/h
78 27-04-2018 06:25:00 4.6 C 6.02 g/m*3 4.6 C 0 km/h
79 27-04-2018 06:30:00 4.5 C 5.98 g/m*3 4.5 C 0 km/h
80 27-04-2018 06:35:00 4.4 C 5.94 g/m*3 4.4 C 0 km/h
81 27-04-2018 06:40:00 4.4 C 5.94 g/m*3 4.4 C 0 km/h
82 27-04-2018 06:45:00 4.4 C 5.94 g/m*3 4.4 C 0 km/h
83 27-04-2018 06:50:00 4.4 C 5.94 g/m*3 4.4 C 0 km/h
84 27-04-2018 06:55:00 4.4 C 6.01 g/m*3 4.4 C 0 km/h
85 27-04-2018 07:00:00 4.4 C 6.01 g/m*3 4.4 C 0 km/h
86 27-04-2018 07:05:00 4.6 C 6.09 g/m*3 4.6 C 0 km/h
87 27-04-2018 07:10:00 4.6 C 6.09 g/m*3 4.6 C 0 km/h
88 27-04-2018 07:15:00 4.7 C 6.19 g/m*3 4.7 C 0 km/h
89 27-04-2018 07:20:00 4.8 C 6.24 g/m*3 4.8 C 0 km/h
90 27-04-2018 07:25:00 5 C 6.32 g/m*3 5 C 0 km/h
91 27-04-2018 07:30:00 5.2 C 6.4 g/m*3 5.2 C 0 km/h
92 27-04-2018 07:35:00 5.3 C 6.45 g/m*3 5.3 C 0 km/h
93 27-04-2018 07:40:00 5.4 C 6.49 g/m*3 5.4 C 0 km/h
94 27-04-2018 07:45:00 5.4 C 6.49 g/m*3 5.4 C 0 km/h
95 27-04-2018 07:50:00 5.6 C 6.57 g/m*3 5.6 C 0 km/h
96 27-04-2018 07:55:00 5.7 C 6.62 g/m*3 5.7 C 0 km/h
97 27-04-2018 08:00:00 5.7 C 6.62 g/m*3 5.7 C 0 km/h
98 27-04-2018 08:05:00 5.8 C 6.66 g/m*3 5.8 C 0 km/h
99 27-04-2018 08:10:00 5.8 C 6.59 g/m*3 5.8 C 0 km/h
100 27-04-2018 08:15:00 5.9 C 6.63 g/m*3 5.9 C 0 km/h
Sensor: Nr:Datum:Temp:Abs-Feuchte:Windchill:Wind:
Aussen-T/F 101 27-04-2018 08:20:00 6.1 C 6.72 g/m*3 6.1 C 0 km/h
102 27-04-2018 08:25:00 6.2 C 6.69 g/m*3 6.2 C 0 km/h
103 27-04-2018 08:30:00 6.3 C 6.74 g/m*3 6.3 C 0 km/h
104 27-04-2018 08:35:00 6.4 C 6.71 g/m*3 6.4 C 0 km/h
105 27-04-2018 08:40:00 6.6 C 6.87 g/m*3 6.6 C 0 km/h
106 27-04-2018 08:45:00 6.7 C 6.84 g/m*3 6.7 C 0 km/h
107 27-04-2018 08:50:00 6.8 C 6.88 g/m*3 6.8 C 0 km/h
108 27-04-2018 08:55:00 6.9 C 6.93 g/m*3 6.9 C 0 km/h
109 27-04-2018 09:00:00 7.1 C 6.94 g/m*3 7.1 C 0 km/h
110 27-04-2018 09:05:00 7.2 C 6.91 g/m*3 7.2 C 0 km/h
111 27-04-2018 09:10:00 7.3 C 6.95 g/m*3 7.3 C 0 km/h
112 27-04-2018 09:15:00 7.5 C 7.04 g/m*3 7.5 C 0 km/h
113 27-04-2018 09:20:00 7.6 C 7.01 g/m*3 7.6 C 0 km/h
114 27-04-2018 09:25:00 7.8 C 7.18 g/m*3 7.8 C 0 km/h
115 27-04-2018 09:30:00 8 C 7.28 g/m*3 8 C 0 km/h
116 27-04-2018 09:35:00 8.1 C 7.32 g/m*3 8.1 C 0 km/h
117 27-04-2018 09:40:00 8.3 C 7.42 g/m*3 8.3 C 0 km/h
118 27-04-2018 09:45:00 8.4 C 7.55 g/m*3 8.4 C 0 km/h
119 27-04-2018 09:50:00 8.6 C 7.56 g/m*3 8.6 C 0 km/h
120 27-04-2018 09:55:00 8.7 C 7.7 g/m*3 8.7 C 0 km/h
121 27-04-2018 10:00:00 8.9 C 7.8 g/m*3 8.9 C 0 km/h
122 27-04-2018 10:05:00 9.1 C 7.9 g/m*3 9.1 C 0 km/h
123 27-04-2018 10:10:00 9.3 C 8 g/m*3 9.3 C 0 km/h
124 27-04-2018 10:15:00 9.6 C 8.06 g/m*3 9.6 C 1.6 km/h
125 27-04-2018 10:20:00 9.9 C 8.03 g/m*3 9.9 C 1.6 km/h
Sensor: Nr:Datum:Temp:Abs-Feuchte:Windchill:Wind:
Aussen-T/F 126 27-04-2018 10:25:00 10.3 C 7.85 g/m*3 9.72 C 6.4 km/h
127 27-04-2018 10:30:00 10.8 C 7.71 g/m*3 10.8 C 3.2 km/h
128 27-04-2018 10:35:00 11.3 C 7.65 g/m*3 11.3 C 6.4 km/h
129 27-04-2018 10:40:00 12 C 8.1 g/m*3 12 C 4.8 km/h
130 27-04-2018 10:45:00 12.3 C 7.49 g/m*3 12.3 C 4.8 km/h
131 27-04-2018 10:50:00 12.7 C 7.24 g/m*3 12.7 C 14.5 km/h
132 27-04-2018 10:55:00 13 C 7.14 g/m*3 13 C 14.5 km/h
133 27-04-2018 11:00:00 13.2 C 7 g/m*3 13.2 C 6.4 km/h
134 27-04-2018 11:05:00 13.4 C 7.21 g/m*3 13.4 C 8.1 km/h
135 27-04-2018 11:10:00 13.5 C 6.9 g/m*3 13.5 C 6.4 km/h
136 27-04-2018 11:15:00 13.7 C 7.34 g/m*3 13.7 C 16.1 km/h
137 27-04-2018 11:20:00 13.8 C 6.91 g/m*3 13.8 C 16.1 km/h
138 27-04-2018 11:25:00 13.8 C 6.91 g/m*3 13.8 C 6.4 km/h
139 27-04-2018 11:30:00 13.8 C 6.67 g/m*3 13.8 C 6.4 km/h
140 27-04-2018 11:35:00 13.9 C 6.83 g/m*3 13.9 C 6.4 km/h
141 27-04-2018 11:40:00 14.2 C 6.47 g/m*3 14.2 C 6.4 km/h
142 27-04-2018 11:45:00 14.3 C 6.63 g/m*3 14.3 C 9.7 km/h
143 27-04-2018 11:50:00 14.4 C 6.68 g/m*3 14.4 C 8.1 km/h
144 27-04-2018 11:55:00 14.6 C 6.51 g/m*3 14.6 C 11.3 km/h
145 27-04-2018 12:00:00 14.8 C 6.21 g/m*3 14.8 C 11.3 km/h
146 27-04-2018 12:05:00 14.9 C 6.25 g/m*3 14.9 C 9.7 km/h
147 27-04-2018 12:10:00 15 C 6.03 g/m*3 15 C 6.4 km/h
148 27-04-2018 12:15:00 14.9 C 6.12 g/m*3 14.9 C 8.1 km/h
149 27-04-2018 12:20:00 14.9 C 6.25 g/m*3 14.9 C 12.9 km/h
150 27-04-2018 12:25:00 14.9 C 5.99 g/m*3 14.9 C 17.7 km/h
Sensor: Nr:Datum:Temp:Abs-Feuchte:Windchill:Wind:
Aussen-T/F 151 27-04-2018 12:30:00 15.1 C 6.19 g/m*3 15.1 C 9.7 km/h
152 27-04-2018 12:35:00 15.3 C 6.27 g/m*3 15.3 C 14.5 km/h
153 27-04-2018 12:40:00 15.5 C 6.48 g/m*3 15.5 C 11.3 km/h
154 27-04-2018 12:45:00 15.6 C 6.25 g/m*3 15.6 C 9.7 km/h
155 27-04-2018 12:50:00 15.7 C 5.89 g/m*3 15.7 C 8.1 km/h
156 27-04-2018 12:55:00 15.8 C 6.06 g/m*3 15.8 C 12.9 km/h
157 27-04-2018 13:00:00 15.8 C 6.06 g/m*3 15.8 C 12.9 km/h
158 27-04-2018 13:05:00 15.8 C 5.79 g/m*3 15.8 C 16.1 km/h
159 27-04-2018 13:10:00 15.9 C 6.09 g/m*3 15.9 C 14.5 km/h
160 27-04-2018 13:15:00 16.1 C 5.89 g/m*3 16.1 C 11.3 km/h
161 27-04-2018 13:20:00 16.2 C 5.79 g/m*3 16.2 C 12.9 km/h
162 27-04-2018 13:25:00 16.3 C 6.1 g/m*3 16.3 C 12.9 km/h
163 27-04-2018 13:30:00 16.5 C 6.32 g/m*3 16.5 C 8.1 km/h
164 27-04-2018 13:35:00 16.6 C 6.22 g/m*3 16.6 C 11.3 km/h
165 27-04-2018 13:40:00 16.6 C 6.07 g/m*3 16.6 C 11.3 km/h
166 27-04-2018 13:45:00 16.5 C 6.32 g/m*3 16.5 C 4.8 km/h
167 27-04-2018 13:50:00 16.6 C 6.36 g/m*3 16.6 C 9.7 km/h
168 27-04-2018 13:55:00 16.6 C 6.5 g/m*3 16.6 C 11.3 km/h
169 27-04-2018 14:00:00 16.7 C 6.68 g/m*3 16.7 C 14.5 km/h
170 27-04-2018 14:05:00 16.8 C 7.01 g/m*3 16.8 C 12.9 km/h
171 27-04-2018 14:10:00 16.7 C 6.25 g/m*3 16.7 C 9.7 km/h
172 27-04-2018 14:15:00 16.7 C 6.68 g/m*3 16.7 C 6.4 km/h
173 27-04-2018 14:20:00 16.7 C 6.54 g/m*3 16.7 C 16.1 km/h
174 27-04-2018 14:25:00 16.7 C 6.54 g/m*3 16.7 C 8.1 km/h
175 27-04-2018 14:30:00 16.7 C 6.54 g/m*3 16.7 C 12.9 km/h
Sensor: Nr:Datum:Temp:Abs-Feuchte:Windchill:Wind:
Aussen-T/F 176 27-04-2018 14:35:00 16.8 C 6.58 g/m*3 16.8 C 6.4 km/h
177 27-04-2018 14:40:00 16.8 C 6.72 g/m*3 16.8 C 9.7 km/h
178 27-04-2018 14:45:00 17.1 C 6.84 g/m*3 17.1 C 11.3 km/h
179 27-04-2018 14:50:00 17.2 C 6.44 g/m*3 17.2 C 14.5 km/h
180 27-04-2018 14:55:00 17.4 C 6.67 g/m*3 17.4 C 14.5 km/h
181 27-04-2018 15:00:00 17.7 C 6.64 g/m*3 17.7 C 11.3 km/h
182 27-04-2018 15:05:00 17.8 C 6.68 g/m*3 17.8 C 11.3 km/h
183 27-04-2018 15:10:00 18 C 6.6 g/m*3 18 C 11.3 km/h
184 27-04-2018 15:15:00 17.9 C 6.72 g/m*3 17.9 C 14.5 km/h
185 27-04-2018 15:20:00 18 C 6.91 g/m*3 18 C 12.9 km/h
186 27-04-2018 15:25:00 18.1 C 6.8 g/m*3 18.1 C 11.3 km/h
187 27-04-2018 15:30:00 18.2 C 7.15 g/m*3 18.2 C 8.1 km/h
188 27-04-2018 15:35:00 18.4 C 6.92 g/m*3 18.4 C 6.4 km/h
189 27-04-2018 15:40:00 18.6 C 6.68 g/m*3 18.6 C 17.7 km/h
190 27-04-2018 15:45:00 18.7 C 7.04 g/m*3 18.7 C 11.3 km/h
191 27-04-2018 15:50:00 18.7 C 6.72 g/m*3 18.7 C 17.7 km/h
192 27-04-2018 15:55:00 18.7 C 6.88 g/m*3 18.7 C 6.4 km/h
193 27-04-2018 16:00:00 18.6 C 6.84 g/m*3 18.6 C 11.3 km/h
194 27-04-2018 16:05:00 18.6 C 7.16 g/m*3 18.6 C 8.1 km/h
195 27-04-2018 16:10:00 18.8 C 7.25 g/m*3 18.8 C 4.8 km/h
196 27-04-2018 16:15:00 18.9 C 7.13 g/m*3 18.9 C 12.9 km/h
197 27-04-2018 16:20:00 19.2 C 7.09 g/m*3 19.2 C 8.1 km/h
198 27-04-2018 16:25:00 19.4 C 7.01 g/m*3 19.4 C 8.1 km/h
199 27-04-2018 16:30:00 19.7 C 6.62 g/m*3 19.7 C 9.7 km/h
200 27-04-2018 16:35:00 19.8 C 6.66 g/m*3 19.8 C 12.9 km/h
Sensor: Nr:Datum:Temp:Abs-Feuchte:Windchill:Wind:
Aussen-T/F 201 27-04-2018 16:40:00 19.9 C 6.87 g/m*3 19.9 C 16.1 km/h
202 27-04-2018 16:45:00 20.2 C 6.82 g/m*3 20.2 C 11.3 km/h
203 27-04-2018 16:50:00 20.5 C 6.94 g/m*3 20.5 C 4.8 km/h
204 27-04-2018 16:55:00 21 C 6.96 g/m*3 21 C 12.9 km/h
205 27-04-2018 17:00:00 21.2 C 7.23 g/m*3 21.2 C 12.9 km/h
206 27-04-2018 17:05:00 21.3 C 6.9 g/m*3 21.3 C 12.9 km/h
207 27-04-2018 17:10:00 21.3 C 6.9 g/m*3 21.3 C 12.9 km/h
208 27-04-2018 17:15:00 21.4 C 6.75 g/m*3 21.4 C 11.3 km/h
209 27-04-2018 17:20:00 21.4 C 6.56 g/m*3 21.4 C 12.9 km/h
210 27-04-2018 17:25:00 21.3 C 6.52 g/m*3 21.3 C 11.3 km/h
211 27-04-2018 17:30:00 21.4 C 6.75 g/m*3 21.4 C 11.3 km/h
212 27-04-2018 17:35:00 21.6 C 7.21 g/m*3 21.6 C 9.7 km/h
213 27-04-2018 17:40:00 21.5 C 6.41 g/m*3 21.5 C 9.7 km/h
214 27-04-2018 17:45:00 21.4 C 6.94 g/m*3 21.4 C 12.9 km/h
215 27-04-2018 17:50:00 21.6 C 6.83 g/m*3 21.6 C 6.4 km/h
216 27-04-2018 17:55:00 21.7 C 6.87 g/m*3 21.7 C 6.4 km/h
217 27-04-2018 18:00:00 22 C 6.79 g/m*3 22 C 6.4 km/h
218 27-04-2018 18:05:00 22.1 C 7.22 g/m*3 22.1 C 6.4 km/h
219 27-04-2018 18:10:00 22.1 C 6.83 g/m*3 22.1 C 9.7 km/h
220 27-04-2018 18:15:00 21.7 C 7.25 g/m*3 21.7 C 8.1 km/h
221 27-04-2018 18:20:00 21.4 C 6.75 g/m*3 21.4 C 8.1 km/h
222 27-04-2018 18:25:00 21 C 7.51 g/m*3 21 C 6.4 km/h
223 27-04-2018 18:30:00 20.8 C 6.88 g/m*3 20.8 C 8.1 km/h
224 27-04-2018 18:35:00 20.8 C 6.7 g/m*3 20.8 C 4.8 km/h
225 27-04-2018 18:40:00 20.8 C 7.42 g/m*3 20.8 C 3.2 km/h
Sensor: Nr:Datum:Temp:Abs-Feuchte:Windchill:Wind:
Aussen-T/F 226 27-04-2018 18:45:00 21.1 C 6.82 g/m*3 21.1 C 4.8 km/h
227 27-04-2018 18:50:00 21.2 C 7.04 g/m*3 21.2 C 4.8 km/h
228 27-04-2018 18:55:00 21.3 C 7.08 g/m*3 21.3 C 1.6 km/h
229 27-04-2018 19:00:00 21.3 C 7.08 g/m*3 21.3 C 6.4 km/h
230 27-04-2018 19:05:00 21.3 C 7.08 g/m*3 21.3 C 6.4 km/h
231 27-04-2018 19:10:00 21.4 C 7.31 g/m*3 21.4 C 4.8 km/h
232 27-04-2018 19:15:00 21.3 C 7.27 g/m*3 21.3 C 4.8 km/h
233 27-04-2018 19:20:00 21.2 C 7.41 g/m*3 21.2 C 4.8 km/h
234 27-04-2018 19:25:00 20.9 C 8.2 g/m*3 20.9 C 0 km/h
235 27-04-2018 19:30:00 20.7 C 8.46 g/m*3 20.7 C 0 km/h
236 27-04-2018 19:35:00 20.4 C 8.14 g/m*3 20.4 C 0 km/h
237 27-04-2018 19:40:00 20.2 C 8.57 g/m*3 20.2 C 1.6 km/h
238 27-04-2018 19:45:00 19.9 C 8.08 g/m*3 19.9 C 3.2 km/h
239 27-04-2018 19:50:00 19.7 C 8.49 g/m*3 19.7 C 0 km/h
240 27-04-2018 19:55:00 19.4 C 8.34 g/m*3 19.4 C 0 km/h
241 27-04-2018 20:00:00 19.1 C 8.36 g/m*3 19.1 C 0 km/h
242 27-04-2018 20:05:00 18.7 C 8.17 g/m*3 18.7 C 1.6 km/h
243 27-04-2018 20:10:00 18.1 C 8.34 g/m*3 18.1 C 0 km/h
244 27-04-2018 20:15:00 17.6 C 8.25 g/m*3 17.6 C 1.6 km/h
245 27-04-2018 20:20:00 17.1 C 8.3 g/m*3 17.1 C 0 km/h
246 27-04-2018 20:25:00 16.6 C 8.19 g/m*3 16.6 C 0 km/h
247 27-04-2018 20:30:00 16.1 C 8.09 g/m*3 16.1 C 0 km/h
248 27-04-2018 20:35:00 15.7 C 8.03 g/m*3 15.7 C 0 km/h
249 27-04-2018 20:40:00 15.3 C 7.97 g/m*3 15.3 C 0 km/h
250 27-04-2018 20:45:00 15.1 C 8.13 g/m*3 15.1 C 0 km/h
Sensor: Nr:Datum:Temp:Abs-Feuchte:Windchill:Wind:
Aussen-T/F 251 27-04-2018 20:50:00 14.8 C 7.98 g/m*3 14.8 C 0 km/h
252 27-04-2018 20:55:00 14.5 C 8.08 g/m*3 14.5 C 0 km/h
253 27-04-2018 21:00:00 14.2 C 8.06 g/m*3 14.2 C 0 km/h
254 27-04-2018 21:05:00 13.9 C 8.03 g/m*3 13.9 C 0 km/h
255 27-04-2018 21:10:00 13.7 C 7.93 g/m*3 13.7 C 0 km/h
256 27-04-2018 21:15:00 13.5 C 7.84 g/m*3 13.5 C 0 km/h
257 27-04-2018 21:20:00 13.4 C 7.79 g/m*3 13.4 C 0 km/h
258 27-04-2018 21:25:00 13.4 C 7.9 g/m*3 13.4 C 0 km/h
259 27-04-2018 21:30:00 13.3 C 7.97 g/m*3 13.3 C 0 km/h
260 27-04-2018 21:35:00 13.2 C 7.92 g/m*3 13.2 C 0 km/h
261 27-04-2018 21:40:00 13.1 C 7.87 g/m*3 13.1 C 0 km/h
262 27-04-2018 21:45:00 12.9 C 7.78 g/m*3 12.9 C 0 km/h
263 27-04-2018 21:50:00 12.9 C 7.89 g/m*3 12.9 C 0 km/h
264 27-04-2018 21:55:00 12.8 C 7.84 g/m*3 12.8 C 0 km/h
265 27-04-2018 22:00:00 12.7 C 7.68 g/m*3 12.7 C 0 km/h
266 27-04-2018 22:05:00 12.7 C 7.79 g/m*3 12.7 C 0 km/h
267 27-04-2018 22:10:00 12.6 C 7.74 g/m*3 12.6 C 3.2 km/h
268 27-04-2018 22:15:00 12.6 C 7.74 g/m*3 12.6 C 6.4 km/h
269 27-04-2018 22:20:00 12.6 C 7.74 g/m*3 12.6 C 4.8 km/h
270 27-04-2018 22:25:00 12.6 C 7.85 g/m*3 12.6 C 3.2 km/h
271 27-04-2018 22:30:00 12.7 C 7.79 g/m*3 12.7 C 0 km/h
272 27-04-2018 22:35:00 12.7 C 8.01 g/m*3 12.7 C 0 km/h
273 27-04-2018 22:40:00 12.7 C 7.9 g/m*3 12.7 C 0 km/h
274 27-04-2018 22:45:00 12.7 C 7.9 g/m*3 12.7 C 0 km/h
275 27-04-2018 22:50:00 12.7 C 7.9 g/m*3 12.7 C 0 km/h
Sensor: Nr:Datum:Temp:Abs-Feuchte:Windchill:Wind:
Aussen-T/F 276 27-04-2018 22:55:00 12.7 C 7.9 g/m*3 12.7 C 0 km/h
277 27-04-2018 23:00:00 12.6 C 7.74 g/m*3 12.6 C 0 km/h
278 27-04-2018 23:05:00 12.6 C 7.85 g/m*3 12.6 C 0 km/h
279 27-04-2018 23:10:00 12.6 C 7.74 g/m*3 12.6 C 1.6 km/h
280 27-04-2018 23:15:00 12.6 C 7.85 g/m*3 12.6 C 0 km/h
281 27-04-2018 23:20:00 12.5 C 7.7 g/m*3 12.5 C 0 km/h
282 27-04-2018 23:25:00 12.5 C 7.81 g/m*3 12.5 C 0 km/h
283 27-04-2018 23:30:00 12.4 C 7.76 g/m*3 12.4 C 0 km/h
284 27-04-2018 23:35:00 12.3 C 7.71 g/m*3 12.3 C 0 km/h
285 27-04-2018 23:40:00 12.2 C 7.66 g/m*3 12.2 C 0 km/h
286 27-04-2018 23:45:00 12.1 C 7.72 g/m*3 12.1 C 0 km/h
287 27-04-2018 23:50:00 12 C 7.78 g/m*3 12 C 0 km/h
288 27-04-2018 23:55:00 11.9 C 7.73 g/m*3 11.9 C 0 km/h
289 28-04-2018 00:00:00 11.8 C 7.68 g/m*3 11.8 C 0 km/h
290 28-04-2018 00:05:00 11.7 C 7.74 g/m*3 11.7 C 0 km/h
291 28-04-2018 00:10:00 11.6 C 7.69 g/m*3 11.6 C 0 km/h
292 28-04-2018 00:15:00 11.5 C 7.64 g/m*3 11.5 C 0 km/h
293 28-04-2018 00:20:00 11.4 C 7.7 g/m*3 11.4 C 0 km/h
294 28-04-2018 00:25:00 11.3 C 7.65 g/m*3 11.3 C 0 km/h
295 28-04-2018 00:30:00 11.2 C 7.7 g/m*3 11.2 C 0 km/h
296 28-04-2018 00:35:00 11.1 C 7.66 g/m*3 11.1 C 0 km/h
297 28-04-2018 00:40:00 10.9 C 7.66 g/m*3 10.9 C 1.6 km/h
298 28-04-2018 00:45:00 10.9 C 7.66 g/m*3 10.9 C 0 km/h
299 28-04-2018 00:50:00 10.8 C 7.61 g/m*3 10.8 C 0 km/h
300 28-04-2018 00:55:00 10.8 C 7.71 g/m*3 10.8 C 0 km/h
Sensor: Nr:Datum:Temp:Abs-Feuchte:Windchill:Wind:
Aussen-T/F 301 28-04-2018 01:00:00 10.7 C 7.66 g/m*3 10.7 C 0 km/h
302 28-04-2018 01:05:00 10.7 C 7.66 g/m*3 10.7 C 0 km/h
303 28-04-2018 01:10:00 10.7 C 7.66 g/m*3 10.7 C 0 km/h
304 28-04-2018 01:15:00 10.7 C 7.66 g/m*3 10.7 C 0 km/h
305 28-04-2018 01:20:00 10.6 C 7.61 g/m*3 10.6 C 0 km/h
306 28-04-2018 01:25:00 10.6 C 7.71 g/m*3 10.6 C 0 km/h
307 28-04-2018 01:30:00 10.5 C 7.66 g/m*3 10.5 C 0 km/h
308 28-04-2018 01:35:00 10.3 C 7.57 g/m*3 10.3 C 0 km/h
309 28-04-2018 01:40:00 10.2 C 7.52 g/m*3 10.2 C 0 km/h
310 28-04-2018 01:45:00 10.1 C 7.56 g/m*3 10.1 C 0 km/h
311 28-04-2018 01:50:00 9.9 C 7.56 g/m*3 9.9 C 0 km/h
312 28-04-2018 01:55:00 9.8 C 7.52 g/m*3 9.8 C 0 km/h
313 28-04-2018 02:00:00 9.7 C 7.47 g/m*3 9.7 C 0 km/h
314 28-04-2018 02:05:00 9.6 C 7.51 g/m*3 9.6 C 0 km/h
315 28-04-2018 02:10:00 9.5 C 7.46 g/m*3 9.5 C 0 km/h
316 28-04-2018 02:15:00 9.4 C 7.51 g/m*3 9.4 C 0 km/h
317 28-04-2018 02:20:00 9.3 C 7.46 g/m*3 9.3 C 0 km/h
318 28-04-2018 02:25:00 9.1 C 7.36 g/m*3 9.1 C 0 km/h
319 28-04-2018 02:30:00 9 C 7.41 g/m*3 9 C 0 km/h
320 28-04-2018 02:35:00 8.9 C 7.45 g/m*3 8.9 C 0 km/h
321 28-04-2018 02:40:00 8.8 C 7.4 g/m*3 8.8 C 0 km/h
322 28-04-2018 02:45:00 8.8 C 7.49 g/m*3 7.98 C 6.4 km/h
323 28-04-2018 02:50:00 8.8 C 7.49 g/m*3 7.98 C 6.4 km/h
324 28-04-2018 02:55:00 8.9 C 7.53 g/m*3 8.9 C 1.6 km/h
325 28-04-2018 03:00:00 9.1 C 7.63 g/m*3 9.1 C 3.2 km/h
Sensor: Nr:Datum:Temp:Abs-Feuchte:Windchill:Wind:
Aussen-T/F 326 28-04-2018 03:05:00 9.2 C 7.68 g/m*3 9.2 C 1.6 km/h
327 28-04-2018 03:10:00 9.3 C 7.73 g/m*3 8.16 C 8.1 km/h
328 28-04-2018 03:15:00 9.4 C 7.78 g/m*3 9.4 C 0 km/h
329 28-04-2018 03:20:00 9.6 C 7.79 g/m*3 9.6 C 3.2 km/h
330 28-04-2018 03:25:00 9.7 C 7.84 g/m*3 9.7 C 1.6 km/h
331 28-04-2018 03:30:00 9.7 C 7.74 g/m*3 9.7 C 1.6 km/h
332 28-04-2018 03:35:00 9.7 C 7.74 g/m*3 9.7 C 0 km/h
333 28-04-2018 03:40:00 9.7 C 7.65 g/m*3 9.7 C 0 km/h
334 28-04-2018 03:45:00 9.7 C 7.65 g/m*3 9.7 C 1.6 km/h
335 28-04-2018 03:50:00 9.7 C 7.65 g/m*3 9.7 C 0 km/h
336 28-04-2018 03:55:00 9.7 C 7.65 g/m*3 9.7 C 0 km/h
337 28-04-2018 04:00:00 9.7 C 7.65 g/m*3 9.7 C 0 km/h
338 28-04-2018 04:05:00 9.6 C 7.6 g/m*3 9.6 C 0 km/h
339 28-04-2018 04:10:00 9.4 C 7.51 g/m*3 9.4 C 0 km/h
340 28-04-2018 04:15:00 9.2 C 7.5 g/m*3 9.2 C 0 km/h
341 28-04-2018 04:20:00 9.1 C 7.45 g/m*3 9.1 C 0 km/h
342 28-04-2018 04:25:00 8.9 C 7.45 g/m*3 8.9 C 0 km/h
343 28-04-2018 04:30:00 8.8 C 7.4 g/m*3 8.8 C 0 km/h
344 28-04-2018 04:35:00 8.7 C 7.44 g/m*3 8.7 C 0 km/h
345 28-04-2018 04:40:00 8.6 C 7.39 g/m*3 8.6 C 0 km/h
346 28-04-2018 04:45:00 8.5 C 7.43 g/m*3 8.5 C 0 km/h
347 28-04-2018 04:50:00 8.4 C 7.38 g/m*3 8.4 C 0 km/h
348 28-04-2018 04:55:00 8.4 C 7.38 g/m*3 8.4 C 0 km/h
349 28-04-2018 05:00:00 8.3 C 7.42 g/m*3 8.3 C 0 km/h
350 28-04-2018 05:05:00 8.3 C 7.42 g/m*3 8.3 C 0 km/h
Sensor: Nr:Datum:Temp:Abs-Feuchte:Windchill:Wind:
Aussen-T/F 351 28-04-2018 05:10:00 8.2 C 7.37 g/m*3 8.2 C 0 km/h
352 28-04-2018 05:15:00 8.2 C 7.37 g/m*3 8.2 C 0 km/h
353 28-04-2018 05:20:00 8.1 C 7.41 g/m*3 8.1 C 0 km/h
354 28-04-2018 05:25:00 8.1 C 7.41 g/m*3 8.1 C 0 km/h
355 28-04-2018 05:30:00 8.1 C 7.41 g/m*3 8.1 C 0 km/h
356 28-04-2018 05:35:00 8 C 7.36 g/m*3 8 C 0 km/h
357 28-04-2018 05:40:00 7.9 C 7.31 g/m*3 7.9 C 0 km/h
358 28-04-2018 05:45:00 7.8 C 7.26 g/m*3 7.8 C 0 km/h
359 28-04-2018 05:50:00 7.8 C 7.26 g/m*3 7.8 C 0 km/h
360 28-04-2018 05:55:00 7.7 C 7.22 g/m*3 7.7 C 0 km/h
361 28-04-2018 06:00:00 7.7 C 7.22 g/m*3 7.7 C 1.6 km/h
362 28-04-2018 06:05:00 7.6 C 7.17 g/m*3 7.6 C 0 km/h
363 28-04-2018 06:10:00 7.4 C 7.08 g/m*3 7.4 C 0 km/h
364 28-04-2018 06:15:00 7.4 C 7.16 g/m*3 7.4 C 0 km/h
365 28-04-2018 06:20:00 7.4 C 7.16 g/m*3 7.4 C 0 km/h
366 28-04-2018 06:25:00 7.4 C 7.16 g/m*3 7.4 C 0 km/h
367 28-04-2018 06:30:00 7.4 C 7.16 g/m*3 7.4 C 0 km/h
368 28-04-2018 06:35:00 7.4 C 7.16 g/m*3 7.4 C 0 km/h
369 28-04-2018 06:40:00 7.4 C 7.24 g/m*3 7.4 C 0 km/h
370 28-04-2018 06:45:00 7.4 C 7.24 g/m*3 7.4 C 0 km/h
371 28-04-2018 06:50:00 7.5 C 7.28 g/m*3 7.5 C 1.6 km/h
372 28-04-2018 06:55:00 7.6 C 7.33 g/m*3 7.6 C 0 km/h
373 28-04-2018 07:00:00 7.6 C 7.33 g/m*3 7.6 C 0 km/h
374 28-04-2018 07:05:00 7.7 C 7.46 g/m*3 7.7 C 0 km/h
375 28-04-2018 07:10:00 7.8 C 7.51 g/m*3 7.8 C 0 km/h
Sensor: Nr:Datum:Temp:Abs-Feuchte:Windchill:Wind:
Aussen-T/F 376 28-04-2018 07:15:00 7.9 C 7.56 g/m*3 7.9 C 0 km/h
377 28-04-2018 07:20:00 8.1 C 7.66 g/m*3 8.1 C 1.6 km/h
378 28-04-2018 07:25:00 8.2 C 7.7 g/m*3 8.2 C 0 km/h
379 28-04-2018 07:30:00 8.3 C 7.75 g/m*3 8.3 C 0 km/h
380 28-04-2018 07:35:00 8.4 C 7.72 g/m*3 8.4 C 4.8 km/h
381 28-04-2018 07:40:00 8.5 C 7.68 g/m*3 8.5 C 0 km/h
382 28-04-2018 07:45:00 8.7 C 7.78 g/m*3 8.7 C 0 km/h
383 28-04-2018 07:50:00 8.8 C 7.75 g/m*3 8.8 C 0 km/h
384 28-04-2018 07:55:00 8.9 C 7.71 g/m*3 8.9 C 0 km/h
385 28-04-2018 08:00:00 9.1 C 7.72 g/m*3 9.1 C 0 km/h
386 28-04-2018 08:05:00 9.2 C 7.77 g/m*3 9.2 C 1.6 km/h
387 28-04-2018 08:10:00 9.2 C 7.59 g/m*3 9.2 C 4.8 km/h
388 28-04-2018 08:15:00 9.4 C 7.69 g/m*3 9.4 C 0 km/h
389 28-04-2018 08:20:00 9.5 C 7.74 g/m*3 9.5 C 1.6 km/h
390 28-04-2018 08:25:00 9.6 C 7.79 g/m*3 9.6 C 0 km/h
391 28-04-2018 08:30:00 9.7 C 7.65 g/m*3 9.7 C 3.2 km/h
392 28-04-2018 08:35:00 9.8 C 7.7 g/m*3 9.8 C 0 km/h
393 28-04-2018 08:40:00 9.9 C 7.75 g/m*3 9.9 C 0 km/h
394 28-04-2018 08:45:00 9.9 C 7.75 g/m*3 9.9 C 1.6 km/h
395 28-04-2018 08:50:00 10.1 C 7.75 g/m*3 10.1 C 3.2 km/h
396 28-04-2018 08:55:00 10.2 C 7.71 g/m*3 10.2 C 4.8 km/h
397 28-04-2018 09:00:00 10.6 C 7.71 g/m*3 9.69 C 8.1 km/h
398 28-04-2018 09:05:00 10.8 C 7.91 g/m*3 10.8 C 0 km/h
399 28-04-2018 09:10:00 11.1 C 7.86 g/m*3 11.1 C 6.4 km/h
400 28-04-2018 09:15:00 11.3 C 7.65 g/m*3 11.3 C 11.3 km/h
Sensor: Nr:Datum:Temp:Abs-Feuchte:Windchill:Wind:
Aussen-T/F 401 28-04-2018 09:20:00 11.6 C 7.69 g/m*3 11.6 C 11.3 km/h
402 28-04-2018 09:25:00 11.8 C 7.68 g/m*3 11.8 C 12.9 km/h
403 28-04-2018 09:30:00 11.9 C 7.73 g/m*3 11.9 C 11.3 km/h
404 28-04-2018 09:35:00 12.1 C 7.72 g/m*3 12.1 C 12.9 km/h
405 28-04-2018 09:40:00 12.3 C 7.82 g/m*3 12.3 C 11.3 km/h
406 28-04-2018 09:45:00 12.5 C 7.92 g/m*3 12.5 C 11.3 km/h
407 28-04-2018 09:50:00 12.7 C 7.9 g/m*3 12.7 C 8.1 km/h
408 28-04-2018 09:55:00 12.9 C 7.89 g/m*3 12.9 C 11.3 km/h
409 28-04-2018 10:00:00 13.1 C 7.87 g/m*3 13.1 C 12.9 km/h
410 28-04-2018 10:05:00 13.3 C 7.97 g/m*3 13.3 C 12.9 km/h
411 28-04-2018 10:10:00 13.4 C 7.9 g/m*3 13.4 C 11.3 km/h
412 28-04-2018 10:15:00 13.6 C 8 g/m*3 13.6 C 9.7 km/h
413 28-04-2018 10:20:00 13.7 C 7.93 g/m*3 13.7 C 12.9 km/h
414 28-04-2018 10:25:00 13.9 C 8.03 g/m*3 13.9 C 16.1 km/h
415 28-04-2018 10:30:00 14.1 C 8.01 g/m*3 14.1 C 16.1 km/h
416 28-04-2018 10:35:00 14.2 C 8.06 g/m*3 14.2 C 8.1 km/h
417 28-04-2018 10:40:00 14.2 C 7.94 g/m*3 14.2 C 12.9 km/h
418 28-04-2018 10:45:00 14.3 C 7.99 g/m*3 14.3 C 12.9 km/h
419 28-04-2018 10:50:00 14.4 C 8.03 g/m*3 14.4 C 9.7 km/h
420 28-04-2018 10:55:00 14.5 C 7.84 g/m*3 14.5 C 9.7 km/h
421 28-04-2018 11:00:00 14.6 C 8.01 g/m*3 14.6 C 9.7 km/h
422 28-04-2018 11:05:00 14.6 C 7.88 g/m*3 14.6 C 8.1 km/h
423 28-04-2018 11:10:00 14.6 C 7.88 g/m*3 14.6 C 9.7 km/h
424 28-04-2018 11:15:00 14.6 C 7.88 g/m*3 14.6 C 11.3 km/h
425 28-04-2018 11:20:00 14.6 C 7.76 g/m*3 14.6 C 9.7 km/h
Sensor: Nr:Datum:Temp:Abs-Feuchte:Windchill:Wind:
Aussen-T/F 426 28-04-2018 11:25:00 14.7 C 7.55 g/m*3 14.7 C 14.5 km/h
427 28-04-2018 11:30:00 14.8 C 7.47 g/m*3 14.8 C 11.3 km/h
428 28-04-2018 11:35:00 14.9 C 7.52 g/m*3 14.9 C 12.9 km/h
429 28-04-2018 11:40:00 15 C 7.57 g/m*3 15 C 12.9 km/h
430 28-04-2018 11:45:00 15.1 C 7.61 g/m*3 15.1 C 9.7 km/h
431 28-04-2018 11:50:00 15.3 C 7.57 g/m*3 15.3 C 11.3 km/h
432 28-04-2018 11:55:00 15.4 C 7.75 g/m*3 15.4 C 12.9 km/h
433 28-04-2018 12:00:00 15.5 C 7.67 g/m*3 15.5 C 11.3 km/h
434 28-04-2018 12:05:00 15.6 C 7.71 g/m*3 15.6 C 11.3 km/h
435 28-04-2018 12:10:00 15.7 C 7.49 g/m*3 15.7 C 9.7 km/h
436 28-04-2018 12:15:00 15.8 C 7.67 g/m*3 15.8 C 11.3 km/h
437 28-04-2018 12:20:00 16.2 C 7.86 g/m*3 16.2 C 16.1 km/h
438 28-04-2018 12:25:00 16.4 C 7.68 g/m*3 16.4 C 17.7 km/h
439 28-04-2018 12:30:00 16.5 C 7.44 g/m*3 16.5 C 14.5 km/h
440 28-04-2018 12:35:00 16.6 C 7.35 g/m*3 16.6 C 9.7 km/h
441 28-04-2018 12:40:00 16.5 C 7.3 g/m*3 16.5 C 12.9 km/h
442 28-04-2018 12:45:00 16.5 C 7.44 g/m*3 16.5 C 17.7 km/h
443 28-04-2018 12:50:00 16.6 C 7.63 g/m*3 16.6 C 9.7 km/h
444 28-04-2018 12:55:00 16.6 C 7.35 g/m*3 16.6 C 11.3 km/h
445 28-04-2018 13:00:00 16.7 C 7.39 g/m*3 16.7 C 12.9 km/h
446 28-04-2018 13:05:00 16.7 C 7.39 g/m*3 16.7 C 17.7 km/h
447 28-04-2018 13:10:00 16.7 C 7.53 g/m*3 16.7 C 9.7 km/h
448 28-04-2018 13:15:00 16.8 C 7.29 g/m*3 16.8 C 16.1 km/h
449 28-04-2018 13:20:00 16.8 C 7.43 g/m*3 16.8 C 12.9 km/h
450 28-04-2018 13:25:00 16.8 C 7.43 g/m*3 16.8 C 9.7 km/h
Sensor: Nr:Datum:Temp:Abs-Feuchte:Windchill:Wind:
Aussen-T/F 451 28-04-2018 13:30:00 16.7 C 7.25 g/m*3 16.7 C 14.5 km/h
452 28-04-2018 13:35:00 16.6 C 7.35 g/m*3 16.6 C 12.9 km/h
453 28-04-2018 13:40:00 16.5 C 7.44 g/m*3 16.5 C 8.1 km/h
454 28-04-2018 13:45:00 16.5 C 7.44 g/m*3 16.5 C 9.7 km/h
455 28-04-2018 13:50:00 16.6 C 7.63 g/m*3 16.6 C 11.3 km/h
456 28-04-2018 13:55:00 16.8 C 7.58 g/m*3 16.8 C 9.7 km/h
457 28-04-2018 14:00:00 17.1 C 7.57 g/m*3 17.1 C 17.7 km/h
458 28-04-2018 14:05:00 17.2 C 7.61 g/m*3 17.2 C 12.9 km/h
459 28-04-2018 14:10:00 17.3 C 7.51 g/m*3 17.3 C 14.5 km/h
460 28-04-2018 14:15:00 17.3 C 7.37 g/m*3 17.3 C 17.7 km/h
461 28-04-2018 14:20:00 17.2 C 7.32 g/m*3 17.2 C 17.7 km/h
462 28-04-2018 14:25:00 17.1 C 7.28 g/m*3 17.1 C 16.1 km/h
463 28-04-2018 14:30:00 17.1 C 7.28 g/m*3 17.1 C 12.9 km/h
464 28-04-2018 14:35:00 17.3 C 7.37 g/m*3 17.3 C 14.5 km/h
465 28-04-2018 14:40:00 17.4 C 7.41 g/m*3 17.4 C 14.5 km/h
466 28-04-2018 14:45:00 17.4 C 7.41 g/m*3 17.4 C 12.9 km/h
467 28-04-2018 14:50:00 17.5 C 7.45 g/m*3 17.5 C 14.5 km/h
468 28-04-2018 14:55:00 17.5 C 7.31 g/m*3 17.5 C 20.9 km/h
469 28-04-2018 15:00:00 17.4 C 7.26 g/m*3 17.4 C 20.9 km/h
470 28-04-2018 15:05:00 17.4 C 7.11 g/m*3 17.4 C 14.5 km/h
471 28-04-2018 15:10:00 17.6 C 7.35 g/m*3 17.6 C 11.3 km/h
472 28-04-2018 15:15:00 17.7 C 7.54 g/m*3 17.7 C 14.5 km/h
473 28-04-2018 15:20:00 17.8 C 7.29 g/m*3 17.8 C 12.9 km/h
474 28-04-2018 15:25:00 17.9 C 7.63 g/m*3 17.9 C 8.1 km/h
475 28-04-2018 15:30:00 17.9 C 7.33 g/m*3 17.9 C 11.3 km/h
Sensor: Nr:Datum:Temp:Abs-Feuchte:Windchill:Wind:
Aussen-T/F 476 28-04-2018 15:35:00 17.9 C 7.33 g/m*3 17.9 C 8.1 km/h
477 28-04-2018 15:40:00 18.1 C 7.42 g/m*3 18.1 C 12.9 km/h
478 28-04-2018 15:45:00 18.2 C 7.62 g/m*3 18.2 C 8.1 km/h
479 28-04-2018 15:50:00 18.2 C 7.46 g/m*3 18.2 C 11.3 km/h
480 28-04-2018 15:55:00 18.3 C 7.51 g/m*3 18.3 C 8.1 km/h
481 28-04-2018 16:00:00 18.4 C 7.55 g/m*3 18.4 C 12.9 km/h
482 28-04-2018 16:05:00 18.5 C 7.44 g/m*3 18.5 C 11.3 km/h
483 28-04-2018 16:10:00 18.6 C 7.48 g/m*3 18.6 C 11.3 km/h
484 28-04-2018 16:15:00 18.5 C 7.28 g/m*3 18.5 C 9.7 km/h
485 28-04-2018 16:20:00 18.3 C 7.35 g/m*3 18.3 C 12.9 km/h
486 28-04-2018 16:25:00 18.2 C 7.46 g/m*3 18.2 C 6.4 km/h
487 28-04-2018 16:30:00 18.1 C 7.57 g/m*3 18.1 C 8.1 km/h
488 28-04-2018 16:35:00 17.8 C 7.29 g/m*3 17.8 C 11.3 km/h
489 28-04-2018 16:40:00 17.7 C 7.39 g/m*3 17.7 C 8.1 km/h
490 28-04-2018 16:45:00 17.7 C 7.54 g/m*3 17.7 C 6.4 km/h
491 28-04-2018 16:50:00 17.6 C 7.2 g/m*3 17.6 C 9.7 km/h
492 28-04-2018 16:55:00 17.6 C 7.5 g/m*3 17.6 C 9.7 km/h
493 28-04-2018 17:00:00 17.7 C 7.54 g/m*3 17.7 C 8.1 km/h
494 28-04-2018 17:05:00 17.7 C 7.54 g/m*3 17.7 C 9.7 km/h
495 28-04-2018 17:10:00 17.7 C 7.39 g/m*3 17.7 C 12.9 km/h
496 28-04-2018 17:15:00 17.7 C 7.39 g/m*3 17.7 C 8.1 km/h
497 28-04-2018 17:20:00 17.6 C 7.35 g/m*3 17.6 C 9.7 km/h
498 28-04-2018 17:25:00 17.5 C 7.45 g/m*3 17.5 C 11.3 km/h
499 28-04-2018 17:30:00 17.4 C 7.56 g/m*3 17.4 C 6.4 km/h
500 28-04-2018 17:35:00 17.4 C 7.71 g/m*3 17.4 C 6.4 km/h
Sensor: Nr:Datum:Temp:Abs-Feuchte:Windchill:Wind:
Aussen-T/F 501 28-04-2018 17:40:00 17.3 C 7.51 g/m*3 17.3 C 8.1 km/h
502 28-04-2018 17:45:00 17.2 C 7.47 g/m*3 17.2 C 6.4 km/h
503 28-04-2018 17:50:00 17.1 C 7.57 g/m*3 17.1 C 1.6 km/h
504 28-04-2018 17:55:00 16.9 C 7.62 g/m*3 16.9 C 4.8 km/h
505 28-04-2018 18:00:00 16.8 C 7.86 g/m*3 16.8 C 3.2 km/h
506 28-04-2018 18:05:00 16.8 C 7.86 g/m*3 16.8 C 4.8 km/h
507 28-04-2018 18:10:00 16.7 C 7.82 g/m*3 16.7 C 6.4 km/h
508 28-04-2018 18:15:00 16.6 C 7.91 g/m*3 16.6 C 3.2 km/h
509 28-04-2018 18:20:00 16.5 C 8.14 g/m*3 16.5 C 0 km/h
510 28-04-2018 18:25:00 16.3 C 8.19 g/m*3 16.3 C 0 km/h
511 28-04-2018 18:30:00 16.2 C 8.41 g/m*3 16.2 C 1.6 km/h
512 28-04-2018 18:35:00 16 C 8.04 g/m*3 16 C 1.6 km/h
513 28-04-2018 18:40:00 15.9 C 8.26 g/m*3 15.9 C 0 km/h
514 28-04-2018 18:45:00 15.8 C 8.62 g/m*3 15.8 C 0 km/h
515 28-04-2018 18:50:00 15.6 C 8.64 g/m*3 15.6 C 0 km/h
516 28-04-2018 18:55:00 15.5 C 8.59 g/m*3 15.5 C 0 km/h
517 28-04-2018 19:00:00 15.4 C 8.8 g/m*3 15.4 C 0 km/h
518 28-04-2018 19:05:00 15.3 C 8.88 g/m*3 15.3 C 0 km/h
519 28-04-2018 19:10:00 15.2 C 8.96 g/m*3 15.2 C 0 km/h
520 28-04-2018 19:15:00 15 C 8.85 g/m*3 15 C 1.6 km/h
521 28-04-2018 19:20:00 14.8 C 8.99 g/m*3 14.8 C 1.6 km/h
522 28-04-2018 19:25:00 14.6 C 8.88 g/m*3 14.6 C 1.6 km/h
523 28-04-2018 19:30:00 14.3 C 8.72 g/m*3 14.3 C 0 km/h
524 28-04-2018 19:35:00 14.1 C 8.86 g/m*3 14.1 C 0 km/h
525 28-04-2018 19:40:00 13.9 C 8.75 g/m*3 13.9 C 1.6 km/h
Sensor: Nr:Datum:Temp:Abs-Feuchte:Windchill:Wind:
Aussen-T/F 526 28-04-2018 19:45:00 13.8 C 8.82 g/m*3 13.8 C 1.6 km/h
527 28-04-2018 19:50:00 13.7 C 9 g/m*3 13.7 C 1.6 km/h
528 28-04-2018 19:55:00 13.5 C 8.89 g/m*3 13.5 C 1.6 km/h
529 28-04-2018 20:00:00 13.4 C 8.83 g/m*3 13.4 C 3.2 km/h
530 28-04-2018 20:05:00 13.3 C 9.01 g/m*3 13.3 C 3.2 km/h
531 28-04-2018 20:10:00 13.1 C 8.9 g/m*3 13.1 C 1.6 km/h
532 28-04-2018 20:15:00 12.9 C 9.02 g/m*3 12.9 C 3.2 km/h
533 28-04-2018 20:20:00 12.8 C 9.07 g/m*3 12.8 C 3.2 km/h
534 28-04-2018 20:25:00 12.7 C 9.24 g/m*3 12.7 C 3.2 km/h
535 28-04-2018 20:30:00 12.5 C 9.13 g/m*3 12.5 C 3.2 km/h
536 28-04-2018 20:35:00 12.4 C 9.18 g/m*3 12.4 C 3.2 km/h
537 28-04-2018 20:40:00 12.3 C 9.12 g/m*3 12.3 C 4.8 km/h
538 28-04-2018 20:45:00 12.2 C 9.06 g/m*3 12.2 C 3.2 km/h
539 28-04-2018 20:50:00 12.1 C 9.01 g/m*3 12.1 C 3.2 km/h
540 28-04-2018 20:55:00 12 C 9.06 g/m*3 12 C 0 km/h
541 28-04-2018 21:00:00 11.9 C 9.11 g/m*3 11.9 C 0 km/h
542 28-04-2018 21:05:00 11.9 C 9.21 g/m*3 11.9 C 0 km/h
543 28-04-2018 21:10:00 11.8 C 9.16 g/m*3 11.8 C 0 km/h
544 28-04-2018 21:15:00 11.8 C 9.16 g/m*3 11.8 C 0 km/h
545 28-04-2018 21:20:00 11.7 C 9.1 g/m*3 11.7 C 1.6 km/h
546 28-04-2018 21:25:00 11.6 C 9.15 g/m*3 11.6 C 0 km/h
547 28-04-2018 21:30:00 11.5 C 9.09 g/m*3 11.5 C 0 km/h
548 28-04-2018 21:35:00 11.4 C 9.14 g/m*3 11.4 C 0 km/h
549 28-04-2018 21:40:00 11.4 C 9.14 g/m*3 11.4 C 0 km/h
550 28-04-2018 21:45:00 11.3 C 9.08 g/m*3 11.3 C 0 km/h
Sensor: Nr:Datum:Temp:Abs-Feuchte:Windchill:Wind:
Aussen-T/F 551 28-04-2018 21:50:00 11.3 C 9.18 g/m*3 11.3 C 0 km/h
552 28-04-2018 21:55:00 11.2 C 9.12 g/m*3 11.2 C 0 km/h
553 28-04-2018 22:00:00 11.2 C 9.12 g/m*3 11.2 C 1.6 km/h
554 28-04-2018 22:05:00 11.2 C 9.12 g/m*3 11.2 C 0 km/h
555 28-04-2018 22:10:00 11.1 C 9.17 g/m*3 11.1 C 0 km/h
556 28-04-2018 22:15:00 11.1 C 9.07 g/m*3 11.1 C 1.6 km/h
557 28-04-2018 22:20:00 11.1 C 9.07 g/m*3 11.1 C 1.6 km/h
558 28-04-2018 22:25:00 11 C 9.01 g/m*3 11 C 0 km/h
559 28-04-2018 22:30:00 10.9 C 8.95 g/m*3 10.9 C 1.6 km/h
560 28-04-2018 22:35:00 10.9 C 8.95 g/m*3 10.9 C 0 km/h
561 28-04-2018 22:40:00 10.9 C 8.95 g/m*3 10.9 C 0 km/h
562 28-04-2018 22:45:00 10.8 C 8.9 g/m*3 10.8 C 0 km/h
563 28-04-2018 22:50:00 10.8 C 8.9 g/m*3 10.8 C 0 km/h
564 28-04-2018 22:55:00 10.7 C 8.84 g/m*3 10.7 C 0 km/h
565 28-04-2018 23:00:00 10.7 C 8.94 g/m*3 10.7 C 0 km/h
566 28-04-2018 23:05:00 10.7 C 8.94 g/m*3 10.7 C 0 km/h
567 28-04-2018 23:10:00 10.7 C 8.94 g/m*3 10.7 C 0 km/h
568 28-04-2018 23:15:00 10.7 C 8.94 g/m*3 10.7 C 0 km/h
569 28-04-2018 23:20:00 10.6 C 8.88 g/m*3 10.6 C 0 km/h
570 28-04-2018 23:25:00 10.5 C 8.83 g/m*3 10.5 C 0 km/h
571 28-04-2018 23:30:00 10.4 C 8.77 g/m*3 10.4 C 0 km/h
572 28-04-2018 23:35:00 10.4 C 8.77 g/m*3 10.4 C 0 km/h
573 28-04-2018 23:40:00 10.3 C 8.71 g/m*3 10.3 C 0 km/h
574 28-04-2018 23:45:00 10.2 C 8.66 g/m*3 10.2 C 0 km/h
575 28-04-2018 23:50:00 10.2 C 8.66 g/m*3 10.2 C 0 km/h
Sensor: Nr:Datum:Temp:Abs-Feuchte:Windchill:Wind:
Aussen-T/F 576 28-04-2018 23:55:00 10.1 C 8.61 g/m*3 10.1 C 0 km/h
577 29-04-2018 00:00:00 10.1 C 8.61 g/m*3 10.1 C 0 km/h
578 29-04-2018 00:05:00 10 C 8.55 g/m*3 10 C 0 km/h
579 29-04-2018 00:10:00 9.9 C 8.5 g/m*3 9.9 C 0 km/h
580 29-04-2018 00:15:00 9.8 C 8.44 g/m*3 9.8 C 0 km/h
581 29-04-2018 00:20:00 9.8 C 8.44 g/m*3 9.8 C 0 km/h
582 29-04-2018 00:25:00 9.7 C 8.39 g/m*3 9.7 C 0 km/h
583 29-04-2018 00:30:00 9.7 C 8.39 g/m*3 9.7 C 0 km/h
584 29-04-2018 00:35:00 9.7 C 8.39 g/m*3 9.7 C 0 km/h
585 29-04-2018 00:40:00 9.7 C 8.48 g/m*3 9.7 C 0 km/h
586 29-04-2018 00:45:00 9.8 C 8.54 g/m*3 9.8 C 0 km/h
587 29-04-2018 00:50:00 9.7 C 8.39 g/m*3 9.7 C 0 km/h
588 29-04-2018 00:55:00 9.6 C 8.34 g/m*3 9.6 C 0 km/h
589 29-04-2018 01:00:00 9.5 C 8.28 g/m*3 9.5 C 0 km/h
590 29-04-2018 01:05:00 9.4 C 8.23 g/m*3 9.4 C 0 km/h
591 29-04-2018 01:10:00 9.4 C 8.32 g/m*3 9.4 C 0 km/h
592 29-04-2018 01:15:00 9.3 C 8.18 g/m*3 9.3 C 0 km/h
593 29-04-2018 01:20:00 9.2 C 8.22 g/m*3 9.2 C 0 km/h
594 29-04-2018 01:25:00 9.2 C 8.13 g/m*3 9.2 C 0 km/h
595 29-04-2018 01:30:00 9.1 C 8.16 g/m*3 9.1 C 0 km/h
596 29-04-2018 01:35:00 8.9 C 8.06 g/m*3 8.9 C 0 km/h
597 29-04-2018 01:40:00 8.9 C 8.06 g/m*3 8.9 C 0 km/h
598 29-04-2018 01:45:00 8.9 C 8.06 g/m*3 8.9 C 0 km/h
599 29-04-2018 01:50:00 8.9 C 8.15 g/m*3 8.9 C 0 km/h
600 29-04-2018 01:55:00 8.9 C 8.15 g/m*3 8.9 C 0 km/h
Sensor: Nr:Datum:Temp:Abs-Feuchte:Windchill:Wind:
Aussen-T/F 601 29-04-2018 02:00:00 9 C 8.2 g/m*3 9 C 0 km/h
602 29-04-2018 02:05:00 9 C 8.2 g/m*3 9 C 0 km/h
603 29-04-2018 02:10:00 9 C 8.2 g/m*3 9 C 0 km/h
604 29-04-2018 02:15:00 9 C 8.2 g/m*3 9 C 0 km/h
605 29-04-2018 02:20:00 8.9 C 8.15 g/m*3 8.9 C 0 km/h
606 29-04-2018 02:25:00 8.8 C 8.09 g/m*3 8.8 C 0 km/h
607 29-04-2018 02:30:00 8.8 C 8.09 g/m*3 8.8 C 0 km/h
608 29-04-2018 02:35:00 8.8 C 8.09 g/m*3 8.8 C 0 km/h
609 29-04-2018 02:40:00 8.8 C 8.09 g/m*3 8.8 C 0 km/h
610 29-04-2018 02:45:00 8.8 C 8.09 g/m*3 8.8 C 0 km/h
611 29-04-2018 02:50:00 8.7 C 8.04 g/m*3 8.7 C 0 km/h
612 29-04-2018 02:55:00 8.6 C 7.99 g/m*3 8.6 C 0 km/h
613 29-04-2018 03:00:00 8.6 C 7.99 g/m*3 8.6 C 0 km/h
614 29-04-2018 03:05:00 8.4 C 7.89 g/m*3 8.4 C 0 km/h
615 29-04-2018 03:10:00 8.3 C 7.84 g/m*3 8.3 C 0 km/h
616 29-04-2018 03:15:00 8.3 C 7.84 g/m*3 8.3 C 0 km/h
617 29-04-2018 03:20:00 8.2 C 7.79 g/m*3 8.2 C 0 km/h
618 29-04-2018 03:25:00 8.1 C 7.74 g/m*3 8.1 C 0 km/h
619 29-04-2018 03:30:00 8.1 C 7.74 g/m*3 8.1 C 0 km/h
620 29-04-2018 03:35:00 8 C 7.69 g/m*3 8 C 0 km/h
621 29-04-2018 03:40:00 7.9 C 7.64 g/m*3 7.9 C 0 km/h
622 29-04-2018 03:45:00 7.9 C 7.64 g/m*3 7.9 C 0 km/h
623 29-04-2018 03:50:00 7.8 C 7.59 g/m*3 7.8 C 0 km/h
624 29-04-2018 03:55:00 7.8 C 7.59 g/m*3 7.8 C 0 km/h
625 29-04-2018 04:00:00 7.7 C 7.54 g/m*3 7.7 C 0 km/h
Sensor: Nr:Datum:Temp:Abs-Feuchte:Windchill:Wind:
Aussen-T/F 626 29-04-2018 04:05:00 7.7 C 7.62 g/m*3 7.7 C 0 km/h
627 29-04-2018 04:10:00 7.6 C 7.49 g/m*3 7.6 C 0 km/h
628 29-04-2018 04:15:00 7.5 C 7.44 g/m*3 7.5 C 0 km/h
629 29-04-2018 04:20:00 7.5 C 7.52 g/m*3 7.5 C 0 km/h
630 29-04-2018 04:25:00 7.4 C 7.48 g/m*3 7.4 C 0 km/h
631 29-04-2018 04:30:00 7.4 C 7.48 g/m*3 7.4 C 0 km/h
632 29-04-2018 04:35:00 7.3 C 7.43 g/m*3 7.3 C 0 km/h
633 29-04-2018 04:40:00 7.3 C 7.43 g/m*3 7.3 C 0 km/h
634 29-04-2018 04:45:00 7.2 C 7.38 g/m*3 7.2 C 0 km/h
635 29-04-2018 04:50:00 7.2 C 7.38 g/m*3 7.2 C 0 km/h
636 29-04-2018 04:55:00 7.2 C 7.38 g/m*3 7.2 C 0 km/h
637 29-04-2018 05:00:00 7.2 C 7.38 g/m*3 7.2 C 0 km/h
638 29-04-2018 05:05:00 7.1 C 7.33 g/m*3 7.1 C 0 km/h
639 29-04-2018 05:10:00 7.1 C 7.33 g/m*3 7.1 C 0 km/h
640 29-04-2018 05:15:00 7.1 C 7.33 g/m*3 7.1 C 0 km/h
641 29-04-2018 05:20:00 7 C 7.28 g/m*3 7 C 0 km/h
642 29-04-2018 05:25:00 7 C 7.28 g/m*3 7 C 0 km/h
643 29-04-2018 05:30:00 7 C 7.28 g/m*3 7 C 0 km/h
644 29-04-2018 05:35:00 6.9 C 7.24 g/m*3 6.9 C 0 km/h
645 29-04-2018 05:40:00 6.9 C 7.31 g/m*3 6.9 C 0 km/h
646 29-04-2018 05:45:00 7 C 7.36 g/m*3 7 C 0 km/h
647 29-04-2018 05:50:00 7.1 C 7.41 g/m*3 7.1 C 0 km/h
648 29-04-2018 05:55:00 7.2 C 7.46 g/m*3 7.2 C 0 km/h
649 29-04-2018 06:00:00 7.4 C 7.55 g/m*3 7.4 C 0 km/h
650 29-04-2018 06:05:00 7.4 C 7.55 g/m*3 7.4 C 0 km/h
Sensor: Nr:Datum:Temp:Abs-Feuchte:Windchill:Wind:
Aussen-T/F 651 29-04-2018 06:10:00 7.5 C 7.6 g/m*3 7.5 C 0 km/h
652 29-04-2018 06:15:00 7.6 C 7.65 g/m*3 7.6 C 0 km/h
653 29-04-2018 06:20:00 7.6 C 7.65 g/m*3 7.6 C 0 km/h
654 29-04-2018 06:25:00 7.7 C 7.7 g/m*3 7.7 C 0 km/h
655 29-04-2018 06:30:00 7.7 C 7.7 g/m*3 7.7 C 0 km/h
656 29-04-2018 06:35:00 7.7 C 7.7 g/m*3 7.7 C 0 km/h
657 29-04-2018 06:40:00 7.7 C 7.78 g/m*3 7.7 C 0 km/h
658 29-04-2018 06:45:00 7.8 C 7.83 g/m*3 7.8 C 0 km/h
659 29-04-2018 06:50:00 7.8 C 7.83 g/m*3 7.8 C 0 km/h
660 29-04-2018 06:55:00 7.9 C 7.89 g/m*3 7.9 C 0 km/h
661 29-04-2018 07:00:00 7.9 C 7.89 g/m*3 7.9 C 0 km/h
662 29-04-2018 07:05:00 7.9 C 7.89 g/m*3 7.9 C 0 km/h
663 29-04-2018 07:10:00 8 C 7.85 g/m*3 8 C 0 km/h
664 29-04-2018 07:15:00 8.1 C 7.9 g/m*3 8.1 C 0 km/h
665 29-04-2018 07:20:00 8.1 C 7.9 g/m*3 8.1 C 0 km/h
666 29-04-2018 07:25:00 8.1 C 7.99 g/m*3 8.1 C 0 km/h
667 29-04-2018 07:30:00 8.2 C 8.04 g/m*3 8.2 C 1.6 km/h
668 29-04-2018 07:35:00 8.2 C 8.04 g/m*3 8.2 C 1.6 km/h
669 29-04-2018 07:40:00 8.2 C 8.04 g/m*3 8.2 C 0 km/h
670 29-04-2018 07:45:00 8.3 C 8.09 g/m*3 8.3 C 0 km/h
671 29-04-2018 07:50:00 8.3 C 8.09 g/m*3 8.3 C 0 km/h
672 29-04-2018 07:55:00 8.5 C 8.2 g/m*3 8.5 C 1.6 km/h
673 29-04-2018 08:00:00 8.5 C 8.2 g/m*3 8.5 C 0 km/h
674 29-04-2018 08:05:00 8.5 C 8.2 g/m*3 8.5 C 0 km/h
675 29-04-2018 08:10:00 8.5 C 8.2 g/m*3 8.5 C 0 km/h
Sensor: Nr:Datum:Temp:Abs-Feuchte:Windchill:Wind:
Aussen-T/F 676 29-04-2018 08:15:00 8.6 C 8.25 g/m*3 8.6 C 4.8 km/h
677 29-04-2018 08:20:00 8.7 C 8.3 g/m*3 7.87 C 6.4 km/h
678 29-04-2018 08:25:00 8.8 C 8.36 g/m*3 7.98 C 6.4 km/h
679 29-04-2018 08:30:00 8.9 C 8.41 g/m*3 8.9 C 3.2 km/h
680 29-04-2018 08:35:00 9.1 C 8.52 g/m*3 8.33 C 6.4 km/h
681 29-04-2018 08:40:00 9.2 C 8.57 g/m*3 9.2 C 4.8 km/h
682 29-04-2018 08:45:00 9.2 C 8.57 g/m*3 9.2 C 3.2 km/h
683 29-04-2018 08:50:00 9.3 C 8.63 g/m*3 9.3 C 1.6 km/h
684 29-04-2018 08:55:00 9.3 C 8.63 g/m*3 9.3 C 0 km/h
685 29-04-2018 09:00:00 9.3 C 8.63 g/m*3 9.3 C 1.6 km/h
686 29-04-2018 09:05:00 9.4 C 8.68 g/m*3 9.4 C 0 km/h
687 29-04-2018 09:10:00 9.6 C 8.79 g/m*3 9.6 C 1.6 km/h
688 29-04-2018 09:15:00 9.7 C 8.85 g/m*3 9.7 C 0 km/h
689 29-04-2018 09:20:00 9.8 C 8.91 g/m*3 9.8 C 1.6 km/h
690 29-04-2018 09:25:00 9.9 C 8.96 g/m*3 9.9 C 0 km/h
691 29-04-2018 09:30:00 10.1 C 9.08 g/m*3 10.1 C 0 km/h
692 29-04-2018 09:35:00 10.1 C 9.08 g/m*3 10.1 C 0 km/h
693 29-04-2018 09:40:00 10.1 C 9.08 g/m*3 10.1 C 1.6 km/h
694 29-04-2018 09:45:00 10.1 C 8.98 g/m*3 10.1 C 1.6 km/h
695 29-04-2018 09:50:00 10 C 8.93 g/m*3 10 C 3.2 km/h
696 29-04-2018 09:55:00 10.1 C 9.08 g/m*3 10.1 C 4.8 km/h
697 29-04-2018 10:00:00 10.2 C 9.14 g/m*3 10.2 C 1.6 km/h
698 29-04-2018 10:05:00 10.2 C 9.14 g/m*3 10.2 C 4.8 km/h
699 29-04-2018 10:10:00 10.3 C 9.19 g/m*3 10.3 C 1.6 km/h
700 29-04-2018 10:15:00 10.4 C 9.25 g/m*3 10.4 C 0 km/h
Sensor: Nr:Datum:Temp:Abs-Feuchte:Windchill:Wind:
Aussen-T/F 701 29-04-2018 10:20:00 10.6 C 9.37 g/m*3 10.6 C 0 km/h
702 29-04-2018 10:25:00 10.7 C 9.43 g/m*3 10.7 C 0 km/h
703 29-04-2018 10:30:00 10.9 C 9.55 g/m*3 10.9 C 1.6 km/h
704 29-04-2018 10:35:00 11.1 C 9.67 g/m*3 11.1 C 1.6 km/h
705 29-04-2018 10:40:00 11.2 C 9.73 g/m*3 11.2 C 0 km/h
706 29-04-2018 10:45:00 11.4 C 9.85 g/m*3 11.4 C 0 km/h
707 29-04-2018 10:50:00 11.6 C 9.98 g/m*3 11.6 C 1.6 km/h
708 29-04-2018 10:55:00 11.7 C 9.94 g/m*3 11.7 C 0 km/h
709 29-04-2018 11:00:00 11.8 C 10 g/m*3 11.8 C 3.2 km/h
710 29-04-2018 11:05:00 11.9 C 10.06 g/m*3 11.9 C 4.8 km/h
711 29-04-2018 11:10:00 12.1 C 10.19 g/m*3 12.1 C 3.2 km/h
712 29-04-2018 11:15:00 12.2 C 10.25 g/m*3 12.2 C 0 km/h
713 29-04-2018 11:20:00 12.3 C 10.32 g/m*3 12.3 C 3.2 km/h
714 29-04-2018 11:25:00 12.3 C 10.21 g/m*3 12.3 C 3.2 km/h
715 29-04-2018 11:30:00 12.3 C 10.21 g/m*3 12.3 C 3.2 km/h
716 29-04-2018 11:35:00 12.6 C 10.4 g/m*3 12.6 C 1.6 km/h
717 29-04-2018 11:40:00 12.7 C 10.46 g/m*3 12.7 C 0 km/h
718 29-04-2018 11:45:00 12.9 C 10.59 g/m*3 12.9 C 3.2 km/h
719 29-04-2018 11:50:00 13.1 C 10.61 g/m*3 13.1 C 4.8 km/h
720 29-04-2018 11:55:00 13.3 C 10.74 g/m*3 13.3 C 4.8 km/h
721 29-04-2018 12:00:00 13.6 C 10.95 g/m*3 13.6 C 6.4 km/h
722 29-04-2018 12:05:00 13.8 C 10.96 g/m*3 13.8 C 1.6 km/h
723 29-04-2018 12:10:00 14.1 C 11.17 g/m*3 14.1 C 4.8 km/h
724 29-04-2018 12:15:00 14.3 C 11.06 g/m*3 14.3 C 8.1 km/h
725 29-04-2018 12:20:00 14.5 C 11.07 g/m*3 14.5 C 6.4 km/h
Sensor: Nr:Datum:Temp:Abs-Feuchte:Windchill:Wind:
Aussen-T/F 726 29-04-2018 12:25:00 14.7 C 11.08 g/m*3 14.7 C 8.1 km/h
727 29-04-2018 12:30:00 14.9 C 11.22 g/m*3 14.9 C 0 km/h
728 29-04-2018 12:35:00 15.1 C 11.35 g/m*3 15.1 C 3.2 km/h
729 29-04-2018 12:40:00 15.1 C 11.22 g/m*3 15.1 C 3.2 km/h
730 29-04-2018 12:45:00 15.2 C 11.29 g/m*3 15.2 C 4.8 km/h
731 29-04-2018 12:50:00 15.3 C 11.36 g/m*3 15.3 C 1.6 km/h
732 29-04-2018 12:55:00 15.5 C 11.63 g/m*3 15.5 C 1.6 km/h
733 29-04-2018 13:00:00 15.6 C 11.44 g/m*3 15.6 C 1.6 km/h
734 29-04-2018 13:05:00 15.8 C 11.58 g/m*3 15.8 C 3.2 km/h
735 29-04-2018 13:10:00 16 C 11.72 g/m*3 16 C 3.2 km/h
736 29-04-2018 13:15:00 16.3 C 11.93 g/m*3 16.3 C 1.6 km/h
737 29-04-2018 13:20:00 16.4 C 12.14 g/m*3 16.4 C 0 km/h
738 29-04-2018 13:25:00 16.6 C 12.43 g/m*3 16.6 C 0 km/h
739 29-04-2018 13:30:00 16.7 C 12.51 g/m*3 16.7 C 0 km/h
740 29-04-2018 13:35:00 16.7 C 12.79 g/m*3 16.7 C 0 km/h
741 29-04-2018 13:40:00 16.8 C 12.87 g/m*3 16.8 C 3.2 km/h
742 29-04-2018 13:45:00 16.8 C 12.87 g/m*3 16.8 C 0 km/h
743 29-04-2018 13:50:00 16.8 C 12.72 g/m*3 16.8 C 0 km/h
744 29-04-2018 13:55:00 16.9 C 12.66 g/m*3 16.9 C 1.6 km/h
745 29-04-2018 14:00:00 17.1 C 12.96 g/m*3 17.1 C 0 km/h
746 29-04-2018 14:05:00 17.4 C 13.19 g/m*3 17.4 C 8.1 km/h
747 29-04-2018 14:10:00 18 C 12.75 g/m*3 18 C 12.9 km/h
748 29-04-2018 14:15:00 18.6 C 12.73 g/m*3 18.6 C 12.9 km/h
749 29-04-2018 14:20:00 19 C 12.87 g/m*3 19 C 11.3 km/h
750 29-04-2018 14:25:00 19.2 C 12.7 g/m*3 19.2 C 9.7 km/h
Sensor: Nr:Datum:Temp:Abs-Feuchte:Windchill:Wind:
Aussen-T/F 751 29-04-2018 14:30:00 19.3 C 12.61 g/m*3 19.3 C 9.7 km/h
752 29-04-2018 14:35:00 19.4 C 12.68 g/m*3 19.4 C 9.7 km/h
753 29-04-2018 14:40:00 19.6 C 12.83 g/m*3 19.6 C 8.1 km/h
754 29-04-2018 14:45:00 19.8 C 12.81 g/m*3 19.8 C 11.3 km/h
755 29-04-2018 14:50:00 20.2 C 12.94 g/m*3 20.2 C 11.3 km/h
756 29-04-2018 14:55:00 20.4 C 12.74 g/m*3 20.4 C 11.3 km/h
757 29-04-2018 15:00:00 20.6 C 13.07 g/m*3 20.6 C 11.3 km/h
758 29-04-2018 15:05:00 20.7 C 12.96 g/m*3 20.7 C 12.9 km/h
759 29-04-2018 15:10:00 20.9 C 12.93 g/m*3 20.9 C 9.7 km/h
760 29-04-2018 15:15:00 21.1 C 13.27 g/m*3 21.1 C 6.4 km/h
761 29-04-2018 15:20:00 21.3 C 13.05 g/m*3 21.3 C 6.4 km/h
762 29-04-2018 15:25:00 21.6 C 12.9 g/m*3 21.6 C 11.3 km/h
763 29-04-2018 15:30:00 21.7 C 13.16 g/m*3 21.7 C 4.8 km/h
764 29-04-2018 15:35:00 21.8 C 13.05 g/m*3 21.8 C 4.8 km/h
765 29-04-2018 15:40:00 22.1 C 13.08 g/m*3 22.1 C 6.4 km/h
766 29-04-2018 15:45:00 22.4 C 12.71 g/m*3 22.4 C 12.9 km/h
767 29-04-2018 15:50:00 22.8 C 13.21 g/m*3 22.8 C 6.4 km/h
768 29-04-2018 15:55:00 23.2 C 13.31 g/m*3 23.2 C 6.4 km/h
769 29-04-2018 16:00:00 23.6 C 12.97 g/m*3 23.6 C 6.4 km/h
770 29-04-2018 16:05:00 23.8 C 12.48 g/m*3 23.8 C 9.7 km/h
771 29-04-2018 16:10:00 24 C 12.18 g/m*3 24 C 9.7 km/h
772 29-04-2018 16:15:00 23.9 C 12.33 g/m*3 23.9 C 6.4 km/h
773 29-04-2018 16:20:00 23.9 C 12.33 g/m*3 23.9 C 9.7 km/h
774 29-04-2018 16:25:00 23.9 C 12.11 g/m*3 23.9 C 4.8 km/h
775 29-04-2018 16:30:00 23.8 C 12.26 g/m*3 23.8 C 4.8 km/h
Sensor: Nr:Datum:Temp:Abs-Feuchte:Windchill:Wind:
Aussen-T/F 776 29-04-2018 16:35:00 23.8 C 12.26 g/m*3 23.8 C 4.8 km/h
777 29-04-2018 16:40:00 23.9 C 12.98 g/m*3 23.9 C 3.2 km/h
778 29-04-2018 16:45:00 24 C 12.84 g/m*3 24 C 8.1 km/h
779 29-04-2018 16:50:00 24.1 C 12.03 g/m*3 24.1 C 6.4 km/h
780 29-04-2018 16:55:00 24.2 C 11.88 g/m*3 24.2 C 8.1 km/h
781 29-04-2018 17:00:00 24.4 C 12.24 g/m*3 24.4 C 6.4 km/h
782 29-04-2018 17:05:00 24.7 C 12.22 g/m*3 24.7 C 9.7 km/h
783 29-04-2018 17:10:00 24.7 C 13.13 g/m*3 24.7 C 9.7 km/h
784 29-04-2018 17:15:00 24.5 C 12.53 g/m*3 24.5 C 1.6 km/h
785 29-04-2018 17:20:00 24.4 C 12.24 g/m*3 24.4 C 6.4 km/h
786 29-04-2018 17:25:00 24.2 C 12.1 g/m*3 24.2 C 8.1 km/h
787 29-04-2018 17:30:00 24.1 C 12.47 g/m*3 24.1 C 3.2 km/h
788 29-04-2018 17:35:00 23.9 C 14.28 g/m*3 23.9 C 0 km/h
789 29-04-2018 17:40:00 23.6 C 14.46 g/m*3 23.6 C 0 km/h
790 29-04-2018 17:45:00 23.4 C 14.3 g/m*3 23.4 C 0 km/h
791 29-04-2018 17:50:00 23.3 C 13.38 g/m*3 23.3 C 3.2 km/h
792 29-04-2018 17:55:00 23.3 C 14.43 g/m*3 23.3 C 0 km/h
793 29-04-2018 18:00:00 23.1 C 14.26 g/m*3 23.1 C 0 km/h
794 29-04-2018 18:05:00 22.8 C 14.22 g/m*3 22.8 C 0 km/h
795 29-04-2018 18:10:00 22.7 C 14.55 g/m*3 22.7 C 0 km/h
796 29-04-2018 18:15:00 22.7 C 14.75 g/m*3 22.7 C 0 km/h
797 29-04-2018 18:20:00 22.8 C 14.83 g/m*3 22.8 C 0 km/h
798 29-04-2018 18:25:00 23.2 C 14.97 g/m*3 23.2 C 0 km/h
799 29-04-2018 18:30:00 23.3 C 14.64 g/m*3 23.3 C 1.6 km/h
800 29-04-2018 18:35:00 23.1 C 14.47 g/m*3 23.1 C 0 km/h
Sensor: Nr:Datum:Temp:Abs-Feuchte:Windchill:Wind:
Aussen-T/F 801 29-04-2018 18:40:00 22.8 C 14.43 g/m*3 22.8 C 0 km/h
802 29-04-2018 18:45:00 22.6 C 14.46 g/m*3 22.6 C 0 km/h
803 29-04-2018 18:50:00 22.4 C 14.5 g/m*3 22.4 C 0 km/h
804 29-04-2018 18:55:00 22.4 C 14.5 g/m*3 22.4 C 0 km/h
805 29-04-2018 19:00:00 22.4 C 14.5 g/m*3 22.4 C 0 km/h
806 29-04-2018 19:05:00 22.4 C 14.5 g/m*3 22.4 C 0 km/h
807 29-04-2018 19:10:00 22.3 C 14.22 g/m*3 22.3 C 0 km/h
808 29-04-2018 19:15:00 21.9 C 13.89 g/m*3 21.9 C 0 km/h
809 29-04-2018 19:20:00 21.4 C 13.87 g/m*3 21.4 C 0 km/h
810 29-04-2018 19:25:00 21.1 C 13.82 g/m*3 21.1 C 0 km/h
811 29-04-2018 19:30:00 20.8 C 13.94 g/m*3 20.8 C 0 km/h
812 29-04-2018 19:35:00 20.7 C 14.04 g/m*3 20.7 C 0 km/h
813 29-04-2018 19:40:00 20.8 C 13.94 g/m*3 20.8 C 0 km/h
814 29-04-2018 19:45:00 20.8 C 13.94 g/m*3 20.8 C 0 km/h
815 29-04-2018 19:50:00 20.9 C 14.02 g/m*3 20.9 C 0 km/h
816 29-04-2018 19:55:00 20.9 C 13.66 g/m*3 20.9 C 0 km/h
817 29-04-2018 20:00:00 20.8 C 13.58 g/m*3 20.8 C 0 km/h
818 29-04-2018 20:05:00 20.5 C 13.52 g/m*3 20.5 C 0 km/h
819 29-04-2018 20:10:00 20.2 C 13.29 g/m*3 20.2 C 0 km/h
820 29-04-2018 20:15:00 19.8 C 13.32 g/m*3 19.8 C 0 km/h
821 29-04-2018 20:20:00 19.4 C 13.18 g/m*3 19.4 C 0 km/h
822 29-04-2018 20:25:00 19.1 C 13.11 g/m*3 19.1 C 0 km/h
823 29-04-2018 20:30:00 18.8 C 12.88 g/m*3 18.8 C 0 km/h
824 29-04-2018 20:35:00 18.6 C 12.89 g/m*3 18.6 C 0 km/h
825 29-04-2018 20:40:00 18.4 C 12.9 g/m*3 18.4 C 0 km/h
Sensor: Nr:Datum:Temp:Abs-Feuchte:Windchill:Wind:
Aussen-T/F 826 29-04-2018 20:45:00 18.2 C 12.9 g/m*3 18.2 C 0 km/h
827 29-04-2018 20:50:00 18.1 C 12.82 g/m*3 18.1 C 0 km/h
828 29-04-2018 20:55:00 17.9 C 12.67 g/m*3 17.9 C 0 km/h
829 29-04-2018 21:00:00 17.8 C 12.75 g/m*3 17.8 C 0 km/h
830 29-04-2018 21:05:00 17.7 C 12.67 g/m*3 17.7 C 0 km/h
831 29-04-2018 21:10:00 17.7 C 12.67 g/m*3 17.7 C 0 km/h
832 29-04-2018 21:15:00 17.6 C 12.6 g/m*3 17.6 C 0 km/h
833 29-04-2018 21:20:00 17.5 C 12.67 g/m*3 17.5 C 0 km/h
834 29-04-2018 21:25:00 17.4 C 12.6 g/m*3 17.4 C 0 km/h
835 29-04-2018 21:30:00 17.4 C 12.6 g/m*3 17.4 C 0 km/h
836 29-04-2018 21:35:00 17.3 C 12.52 g/m*3 17.3 C 0 km/h
837 29-04-2018 21:40:00 17.2 C 12.45 g/m*3 17.2 C 0 km/h
838 29-04-2018 21:45:00 17.2 C 12.45 g/m*3 17.2 C 0 km/h
839 29-04-2018 21:50:00 17.1 C 12.52 g/m*3 17.1 C 0 km/h
840 29-04-2018 21:55:00 17 C 12.44 g/m*3 17 C 0 km/h
841 29-04-2018 22:00:00 16.9 C 12.37 g/m*3 16.9 C 0 km/h
842 29-04-2018 22:05:00 16.8 C 12.3 g/m*3 16.8 C 0 km/h
843 29-04-2018 22:10:00 16.8 C 12.3 g/m*3 16.8 C 0 km/h
844 29-04-2018 22:15:00 16.7 C 12.22 g/m*3 16.7 C 0 km/h
845 29-04-2018 22:20:00 16.6 C 12.15 g/m*3 16.6 C 0 km/h
846 29-04-2018 22:25:00 16.6 C 12.29 g/m*3 16.6 C 0 km/h
847 29-04-2018 22:30:00 16.5 C 12.22 g/m*3 16.5 C 0 km/h
848 29-04-2018 22:35:00 16.4 C 12.14 g/m*3 16.4 C 0 km/h
849 29-04-2018 22:40:00 16.4 C 12.28 g/m*3 16.4 C 0 km/h
850 29-04-2018 22:45:00 16.4 C 12.28 g/m*3 16.4 C 1.6 km/h
Sensor: Nr:Datum:Temp:Abs-Feuchte:Windchill:Wind:
Aussen-T/F 851 29-04-2018 22:50:00 16.4 C 12.28 g/m*3 16.4 C 0 km/h
852 29-04-2018 22:55:00 16.4 C 12.28 g/m*3 16.4 C 0 km/h
853 29-04-2018 23:00:00 16.4 C 12.14 g/m*3 16.4 C 0 km/h
854 29-04-2018 23:05:00 16.4 C 12.28 g/m*3 16.4 C 0 km/h
855 29-04-2018 23:10:00 16.4 C 12.14 g/m*3 16.4 C 0 km/h
856 29-04-2018 23:15:00 16.5 C 12.22 g/m*3 16.5 C 0 km/h
857 29-04-2018 23:20:00 16.6 C 12.43 g/m*3 16.6 C 1.6 km/h
858 29-04-2018 23:25:00 16.7 C 12.65 g/m*3 16.7 C 8.1 km/h
859 29-04-2018 23:30:00 16.9 C 12.94 g/m*3 16.9 C 1.6 km/h
860 29-04-2018 23:35:00 16.9 C 13.09 g/m*3 16.9 C 3.2 km/h
861 29-04-2018 23:40:00 16.9 C 13.09 g/m*3 16.9 C 8.1 km/h
862 29-04-2018 23:45:00 16.8 C 13.15 g/m*3 16.8 C 0 km/h
863 29-04-2018 23:50:00 16.7 C 13.07 g/m*3 16.7 C 1.6 km/h
864 29-04-2018 23:55:00 16.7 C 13.22 g/m*3 16.7 C 1.6 km/h

Legende:
   Min
   Max


Maximal/Minimal-Werte vom 27.04.2018 - 29.04.2018

Sensor Min Max Avg
Temp
(Aussen-T/F)
4.4 °C
27-04-2018  06:35:00
24.7 °C
29-04-2018  17:05:00
12.95 °C
Abs-Feuchte
(Aussen-T/F)
5.79 g/m*3
27-04-2018  13:05:00
14.97 g/m*3
29-04-2018  18:25:00
8.42 g/m*3
Windchill
(Aussen-T/F)
4.4 C
27-04-2018  06:35:00
24.7 C
29-04-2018  17:05:00
12.92 C

Die Daten stammen von einer Davis Vantage Pro 2 Wetter-Station und werden unter Linux mit der Software wview2wettercgi und aufbereitet. Alle Angaben erfolgen ohne Gewähr für ihre Vollständigkeit oder Richtigkeit.
Kontakt: Rainer Krienke krienke@uni-koblenz.de . Meine Webseiten an der Uni Koblenz oder privat.
Version: $Revision: 0.78 $